Regional Weather Roundup
Issued by NWS

Home | Current Version | Previous Version | Text Only | Print | Product List | Glossary Off
Versions: 1 2 3 4 5 6 7 8 9 10 11 12 13 14 15 16 17 18 19 20 21 22 23 24 25 26 27 28 29 30 31 32 33 34 35 36 37 38 39 40 41 42 43 44 45 46 47 48 49 50

000
ASUS43 KMKX 011600
RWRWI

WISCONSIN REGIONAL WEATHER ROUNDUP
NATIONAL WEATHER SERVICE MILWAUKEE/SULLIVAN WI
1000 AM CST WED MAR 01 2017

NOTE: "FAIR" INDICATES FEW OR NO CLOUDS BELOW 12,000 FEET WITH NO
SIGNIFICANT WEATHER AND/OR OBSTRUCTIONS TO VISIBILITY.

WIZ001-002-006>008-014>016-023>028-011700-
NORTHWEST WISCONSIN

CITY           SKY/WX    TMP DP  RH WIND       PRES   REMARKS
SUPERIOR ARPT  CLOUDY    23  15  71 NE8       29.90S WCI  13
ASHLAND        CLOUDY    21  16  81 N15       29.87R WCI   8
HAYWARD        CLOUDY    22  18  85 N9        29.81R WCI  12
SIREN          CLOUDY    24  20  85 N12       29.85R WCI  13
CUMBERLAND     CLOUDY    23  21  93 N12       29.78R WCI  12
RICE LAKE      CLOUDY    25  20  83 N12G22    29.79R WCI  14
CHETEK         CLOUDY    25  21  85 N14G23    29.77R WCI  13
LADYSMITH      CLOUDY    26  21  83 N15G23    29.74S WCI  13
EAU CLAIRE     NOT AVBL
MENOMONIE      CLOUDY    28  23  81 NW15      29.77R WCI  17
NEW RICHMOND   CLOUDY    26  21  80 N17       29.82R WCI  13
OSCEOLA        CLOUDY    26  21  82 N13G20    29.87R WCI  15
$$

WIZ003>005-009-010-017-018-011700-
NORTH CENTRAL WISCONSIN

CITY           SKY/WX    TMP DP  RH WIND       PRES   REMARKS
MANITOWISH WTR LGT SNOW  19  19  97 N13G21    29.70S WCI   6
ARBOR VITAE    CLOUDY    22  19  90 N14G25      N/A  WCI   9
WOODRUFF       CLOUDY    22  19  90 N14G25      N/A  WCI   9
RHINELANDER    SNOW      22  19  89 N8        29.65R VSB 1/2 WCI  12
EAGLE RIVER    CLOUDY    19  15  82 N17G25    29.67R FOG     WCI   4
LAND O LAKES   CLOUDY    19  17  93 N13G21    29.69R FOG     WCI   6
PHILLIPS       LGT SNOW  21  19  91 N12G21    29.69S VSB 3/4 WCI   9
TOMAHAWK       SNOW      21  18  88 N10G20    29.67R VSB 1/2 WCI  10
MEDFORD        SNOW      22  20  91 N10G23    29.65R VSB 1/4 WCI  11
MERRILL        NOT AVBL
$$

WIZ029-030-035-036-043>047-011700-
CENTRAL WISCONSIN

CITY           SKY/WX    TMP DP  RH WIND       PRES   REMARKS
WAUSAU         LGT SNOW  24  19  81 N17G26    29.61S WCI  11
MOSINEE        SNOW      25  21  86 N15G25    29.62R VSB 1/2 WCI  12
MARSHFIELD     FOG       25  21  85 N12G22    29.63R VSB 1/4 WCI  14
STEVENS POINT  LGT SNOW  25  24  94 NW9G17    29.60R VSB 1   WCI  16
WAUPACA        CLOUDY    31  26  83 N9G18     29.57S WCI  23
WAUTOMA        SNOW      29  27  92 NW13G24   29.61R VSB 1/2 WCI  19
WISC RAPIDS    SNOW      26  25  96 N15       29.65R VSB 1/4 WCI  14
CAMP DOUGLAS   NOT AVBL
$$

WIZ011>013-019>022-031-037>040-048>050-011700-
NORTHEAST WISCONSIN

CITY           SKY/WX    TMP DP  RH WIND       PRES   REMARKS
ANTIGO         LGT SNOW  23  20  89 N21       29.58S WCI   7
SHAWANO        LGT SNOW  29  26  88 N8        29.57R WCI  21
OCONTO         CLOUDY    25  23  90 N12G25    29.55F VSB 1/2 WCI  14
STURGEON BAY   LGT SNOW  26  23  88 N25G33    29.53S FOG     WCI  11
GREEN BAY      LGT SNOW  28  26  92 N18       29.54R VSB 3/4 WCI  15
MANITOWOC      HVY SNOW  28  27  93 N14G21    29.51R VSB 1/4 WCI  17
APPLETON       NOT AVBL
CLINTONVILLE   LGT SNOW  28  27  93 N12       29.57R WCI  18
OSHKOSH        LGT SNOW  29  27  92 N12       29.55R VSB 3/4 WCI  19
$$

WIZ032>034-041-042-053>061-011700-
SOUTHWEST WISCONSIN

CITY           SKY/WX    TMP DP  RH WIND       PRES   REMARKS
LA CROSSE      LGT SNOW  30  28  92 NW13      29.71R VSB 1   WCI  20
SPARTA         LGT SNOW  28  26  95 N9G18     29.68R VSB 3/4 WCI  19
VIROQUA        CLOUDY    29  29  96 N13G21    29.63S WCI  19
BOSCOBEL       LGT SNOW  34  30  85 NW12      29.66R FOG     WCI  25
PRAIRIE DU CHI LGT SNOW  32  32  99 W16       29.67R WCI  21
PLATTEVILLE    CLOUDY    35  35 100 NW14      29.63R WCI  26
$$

WIZ056-057-062-063-064-067-068-011700-
SOUTH CENTRAL WISCONSIN

CITY           SKY/WX    TMP DP  RH WIND       PRES   REMARKS
REEDSBURG      LGT SNOW  31  31  99 NW12G17   29.61R WCI  22
BARABOO/DELLS  LGT SNOW  31  30  96 NW9       29.60R VSB 3/4 WCI  23
LONE ROCK      SNOW      33  31  92 NW9       29.63R VSB 1/2 WCI  25
MINERAL POINT  LGT SNOW  34  34 100 NW10      29.61R WCI  26
MADISON        LGT SNOW  33  32  96 NW7       29.59R FOG     WCI  27
MIDDLETON      CLOUDY    34  34 100 NW9       29.58S WCI  27
WATERTOWN      SNOW      32  32 100 N8        29.55R VSB 1/2 WCI  25
MONROE         LGT SNOW  34  34 100 NW13      29.58R WCI  25
JANESVILLE     LGT SNOW  36  36 100 NW13      29.57R WCI  27
$$

WIZ051-052-058>065-066-070>072-011700-
SOUTHEAST WISCONSIN

CITY           SKY/WX    TMP DP  RH WIND       PRES   REMARKS
MILWAUKEE      LGT SNOW  35  32  88 NW8       29.51R FOG     WCI  29
WAUKESHA       SNOW      30  30 100 NW9       29.53R VSB 1/2 WCI  22
MILWAUKEE/TIMM SNOW      32  30  93 W12       29.52R VSB 1/2 WCI  23
RACINE         LGT SNOW  34  32  92 NW5       29.52R FOG     WCI  30
KENOSHA        CLOUDY    36  34  92 NW12      29.52R WCI  28
FOND DU LAC    LGT SNOW  30  25  81 N17       29.55R VSB 1   WCI  18
SHEBOYGAN      HVY SNOW  29  26  89 N15       29.50F VSB 1/4 WCI  18
WEST BEND      SNOW      32  32 100 N12       29.49S VSB 1/2 WCI  23
JUNEAU         SNOW      30  29  96 MISG      29.55R VSB 1/2
$$

LSZ147-162-011700-
LAKE SUPERIOR

STATION/POSITION TIME  TEMP    WIND        PRES    WAVE
                       AIR SEA DIR/SP/G            HT/PER
                 (UTC) (F)     (DEG/KT/KT) (MB)    (FT/S)
DEVILS ISLAND    1500   19      30/ 20/ 22 1013.3R
PORT WING        1530   23      40/ 13/ 20 1012.2R
SAXON HARBOR     1530   25      30/ 20/ 25 1010.5R
$$

LMZ867-665-643>646-011700-
LAKE MICHIGAN

STATION/POSITION TIME  TEMP    WIND        PRES    WAVE
                       AIR SEA DIR/SP/G            HT/PER
                 (UTC) (F)     (DEG/KT/KT) (MB)    (FT/S)
CHAMBERS ISLAND  1540   26     350/ 25/ 31 1000.3R
NORTHPORT PIER   1540   26     360/ 25/ 32 1001.0R
SISTER BAY       1350   27     360/ 25/ 34   N/A
KEWAUNEE LAKESHO 1530   27      10/ 17/ 24  999.4R
SHEBOYGAN LAKESH 1500   31     330/ 13/ 17  999.5R
PORT WASHINGTON  1540   31     330/  7/ 17 1000.0S
MILWAUKEE LAKESH 1530   34     310/  6/  8   N/A
KENOSHA   LAKESH 1500   36     340/ 11/ 14  999.3
$$

TC  - TEMPERATURE IN CELSIUS
VSB - VISIBILITY IN STATUTE MILES
WCI - WIND CHILL INDEX
HX  - HEAT INDEX





USA.gov is the U.S. government's official web portal to all federal, state and local government web resources and services.